Weather History for KLGU - June, 2013

Change the Weather History Date:

Friday, June 28, 2013

  Actual Average Record
Temperature  
Mean Temperature 78 °F -  
Max Temperature 100 °F 85 °F 100 °F (2013)
Min Temperature 57 °F 49 °F 37 °F (1980)
Cooling Degree Days 13    
Growing Degree Days 28 (Base 50)    
Moisture  
Dew Point 50 °F    
Average Humidity 44    
Maximum Humidity 74    
Minimum Humidity 13    
Precipitation  
Precipitation 0.00 in - - ()
Sea Level Pressure  
Sea Level Pressure 30.03 in    
Wind  
Wind Speed 2 mph (North)    
Max Wind Speed 10 mph    
Max Gust Speed -    
Visibility 10 miles    
Events      
Averages and records for this station are not official NWS values.
T = Trace of Precipitation, MM = Missing Value Source: NWS Daily Summary

Daily Weather History Graph

Daily Weather History Graph

Search for Another Location

Airport or City:

Trip Planner

Search our weather history database for the weather conditions in past years. The results will help you decide how hot, cold, wet, or windy it might be!

Date:

Astronomy

Jun. 28, 2013 Rise Set
Actual Time 5:55 AM MDT 9:06 PM MDT
Civil Twilight 5:20 AM MDT 9:40 PM MDT
Nautical Twilight 4:36 AM MDT 10:24 PM MDT
Astronomical Twilight 3:44 AM MDT 11:17 PM MDT
Moon 12:00 AM MDT (6/28) 12:12 PM MDT (6/28)
Length of Visible Light 16h 19m
Length of Day
15h 11m
Waning Gibbous, 65% of the Moon is Illuminated
Jun 28
Waning Gibbous
Jun 29
Last Quarter
Jul 8
New
Jul 15
First Quarter
Jul 22
Full

Hourly Weather History & Observations

Time (MDT) Temp. Heat Index Dew Point Humidity Pressure Visibility Wind Dir Wind Speed Gust Speed Precip Events Conditions
12:51 AM 64.9 °F - 51.1 °F 61% 30.06 in 10.0 mi South 3.5 mph - N/A   Clear
1:51 AM 64.0 °F - 51.1 °F 63% 30.06 in 10.0 mi Calm Calm - N/A   Clear
2:51 AM 62.1 °F - 51.1 °F 67% 30.06 in 10.0 mi NE 3.5 mph - N/A   Clear
3:51 AM 63.0 °F - 50.0 °F 63% 30.06 in 10.0 mi Calm Calm - N/A   Clear
4:51 AM 59.0 °F - 48.9 °F 69% 30.07 in 10.0 mi North 3.5 mph - N/A   Clear
5:51 AM 57.9 °F - 48.9 °F 72% 30.09 in 10.0 mi Calm Calm - N/A   Clear
6:51 AM 57.0 °F - 48.9 °F 74% 30.10 in 10.0 mi Calm Calm - N/A   Clear
7:51 AM 64.0 °F - 52.0 °F 65% 30.10 in 10.0 mi Calm Calm - N/A   Clear
8:51 AM 71.1 °F - 51.1 °F 49% 30.11 in 10.0 mi Calm Calm - N/A   Clear
9:51 AM 75.0 °F - 51.1 °F 43% 30.10 in 10.0 mi North 3.5 mph - N/A   Clear
10:51 AM 79.0 °F - 51.1 °F 38% 30.11 in 10.0 mi Calm Calm - N/A   Clear
11:51 AM 84.9 °F 83.2 °F 53.1 °F 33% 30.09 in 10.0 mi NNW 4.6 mph - N/A   Clear
12:51 PM 89.1 °F - 48.9 °F 25% 30.07 in 10.0 mi Variable 3.5 mph - N/A   Clear
1:51 PM 93.0 °F - 52.0 °F 25% 30.04 in 10.0 mi Calm Calm - N/A   Clear
2:51 PM 98.1 °F - 46.0 °F 17% 30.00 in 10.0 mi Variable 3.5 mph - N/A   Clear
3:51 PM 99.0 °F - 39.0 °F 13% 29.97 in 10.0 mi Variable 4.6 mph - N/A   Clear
4:51 PM 99.0 °F - 43.0 °F 15% 29.95 in 10.0 mi NNW 6.9 mph - N/A   Clear
5:51 PM 99.0 °F - 42.1 °F 14% 29.94 in 10.0 mi North 10.4 mph - N/A   Clear
6:51 PM 91.0 °F - 51.1 °F 25% 29.95 in 10.0 mi North 5.8 mph - N/A   Clear
7:51 PM 84.9 °F 84.2 °F 57.9 °F 40% 29.94 in 10.0 mi NNE 5.8 mph - N/A   Clear
8:51 PM 82.9 °F 82.4 °F 57.0 °F 41% 29.94 in 10.0 mi North 3.5 mph - N/A   Clear
9:51 PM 79.0 °F - 57.9 °F 48% 29.96 in 10.0 mi Calm Calm - N/A   Clear
10:51 PM 72.0 °F - 52.0 °F 49% 29.97 in 10.0 mi Calm Calm - N/A   Clear
11:51 PM 68.0 °F - 52.0 °F 56% 29.96 in 10.0 mi NE 3.5 mph - N/A   Clear